Wetbulb
49.58 49.65 49.99 50.44 50.75 50.65 50.56 50.76 51.05 51.01 50.74 50.22 50.52 50.70 50.82 50.98 51.07 51.30 51.51 51.35 51.53 51.70 51.88 52.10 52.12 52.07 51.75 51.11 50.94 51.06 51.22 51.38 51.35 51.55 51.72 51.52 51.43 51.41 51.46 51.66 51.76 51.85 51.86 51.95 52.02 52.22 52.53 52.74 53.03 53.47 54.08 54.73 55.49 56.37 57.30 58.28 59.00 59.56 60.12 60.64 60.86 60.88 60.95 60.87 60.78 60.64 60.60 60.46 60.63
49.37 49.29 49.71 50.65 50.76 50.56 50.52 50.94 51.07 51.05 50.87 50.63 50.56 50.31 50.20 50.72 50.84 51.01 51.05 50.73 51.35 51.58 51.66 52.00 51.56 51.17 50.92 50.68 50.91 50.93 50.85 50.85 50.66 50.75 50.85 50.75 50.77 50.85 50.95 51.12 51.22 51.38 51.42 51.41 51.41 51.73 51.97 51.90 52.03 52.38 52.83 53.23 53.48 53.97 54.61 55.52 56.36 57.14 57.76 58.37 59.09 59.69 60.16 60.55 60.70 60.76 60.71 60.58 60.60
49.33 49.30 49.37 49.35 49.36 49.69 50.16 50.64 50.32 49.66 49.17 49.44 49.98 50.19 50.26 50.36 50.64 50.84 50.90 50.91 50.73 50.84 51.11 51.46 51.31 50.72 50.18 50.23 50.47 50.52 50.42 50.27 50.00 49.96 49.97 50.03 50.04 50.17 50.27 50.53 50.51 50.72 50.98 51.06 51.00 51.23 51.37 51.24 51.51 51.80 52.18 52.39 52.28 52.51 52.91 53.57 54.24 54.85 55.35 55.72 56.80 57.73 58.57 59.34 59.75 60.06 60.26 60.27 60.17
49.16 48.93 48.76 48.57 48.15 47.98 48.51 49.84 49.25 48.83 48.86 49.75 49.35 49.34 49.67 50.14 50.36 50.39 50.28 49.88 49.71 49.97 50.29 50.45 50.48 50.35 50.10 50.06 49.71 49.57 49.65 49.80 49.51 49.22 49.13 49.16 49.21 49.28 49.40 49.69 49.76 49.97 50.20 50.44 50.45 50.48 50.52 50.46 50.97 51.26 51.37 51.25 51.29 51.66 52.24 52.83 52.77 53.06 53.46 53.95 54.91 55.87 56.68 57.14 57.76 58.30 58.74 59.29 59.38
49.21 48.87 48.62 48.34 47.99 48.03 48.19 48.36 48.31 48.54 48.83 49.20 49.61 49.79 49.79 49.64 49.60 49.49 49.59 49.95 50.06 49.92 49.49 48.89 49.37 49.68 49.70 49.28 48.69 48.57 48.57 48.67 49.18 49.03 48.56 48.41 48.53 48.68 48.85 48.88 49.01 49.31 49.61 49.78 49.69 49.86 49.94 49.80 50.45 50.70 50.64 50.73 51.28 51.59 51.86 51.96 52.02 52.12 52.38 53.03 53.39 53.77 54.11 54.30 54.97 55.94 56.87 57.70 58.07
49.23 48.71 48.22 48.05 47.90 48.10 48.37 48.50 48.21 48.31 48.65 49.08 48.75 48.61 48.78 49.31 49.30 49.12 48.89 49.01 48.93 48.55 48.33 48.53 48.87 49.02 48.88 48.30 48.00 47.94 47.88 47.90 48.23 48.07 47.82 47.75 48.07 48.12 48.11 48.11 48.23 48.62 48.90 49.08 48.94 49.05 49.21 49.32 49.94 50.20 50.35 50.66 50.99 51.26 51.46 51.32 51.34 51.38 51.52 51.84 52.37 52.72 52.78 52.57 53.11 53.74 54.57 55.26 55.96
48.81 48.56 48.36 48.07 47.90 48.10 48.21 48.10 48.37 48.21 48.04 48.19 47.63 47.45 47.40 47.76 47.75 47.60 47.55 48.00 48.18 48.13 48.18 48.92 48.38 48.07 47.83 47.46 47.40 47.34 47.32 47.42 47.39 47.19 47.13 47.35 47.44 47.48 47.51 47.65 47.78 47.94 48.06 48.23 48.31 48.44 48.62 48.72 49.25 49.72 50.15 50.69 50.84 50.85 50.86 51.06 50.84 50.73 50.83 51.07 51.76 52.16 52.27 52.12 52.53 52.80 52.92 53.05 53.44
48.43 48.11 47.78 47.65 47.75 47.74 47.70 47.59 47.97 48.12 48.12 48.18 47.47 46.84 46.37 46.68 46.59 46.69 46.80 47.21 47.43 47.49 47.66 48.08 47.21 46.80 46.71 46.77 46.66 46.67 46.64 46.52 46.72 46.78 46.77 46.92 46.74 46.77 46.91 47.09 47.23 47.35 47.49 47.73 47.81 47.86 48.02 48.39 48.76 49.01 49.36 49.82 50.17 50.30 50.34 50.19 50.18 50.09 50.20 50.34 51.18 51.62 51.88 52.14 52.36 52.30 52.13 51.74 51.79
48.36 47.88 47.52 47.42 47.49 47.43 47.35 47.08 46.95 47.01 46.97 46.72 46.36 46.12 46.03 46.38 46.13 46.14 46.37 46.77 47.11 47.06 47.00 47.12 46.46 46.22 46.02 45.97 45.92 46.09 46.19 46.35 46.31 46.29 46.38 46.50 46.35 46.40 46.47 46.75 46.75 46.89 47.15 47.42 47.44 47.29 47.41 47.97 48.40 48.67 48.90 49.28 49.38 49.55 49.64 49.54 49.52 49.57 49.75 50.17 50.70 51.12 51.39 51.65 51.71 51.60 51.37 51.21 51.11
47.75 47.51 47.25 47.31 47.11 47.01 46.92 46.55 46.39 46.02 45.67 45.71 45.46 45.54 45.97 46.82 46.30 46.07 46.22 46.70 46.74 46.50 46.21 46.23 45.97 45.78 45.61 45.48 45.59 45.79 45.90 46.11 46.04 46.00 45.96 46.11 46.06 45.94 45.97 46.28 46.23 46.33 46.63 46.95 47.19 47.18 47.30 47.72 47.99 48.23 48.41 48.71 48.67 48.77 48.93 49.06 49.06 49.07 49.39 50.19 50.50 50.61 50.80 51.16 51.26 51.17 51.12 51.16 51.01
46.90 46.76 46.83 46.96 46.47 46.45 46.43 45.94 46.02 45.85 45.63 45.43 45.26 45.29 45.56 45.91 45.66 45.68 45.97 46.16 45.81 45.46 45.29 45.54 45.27 45.23 45.20 45.40 45.56 45.65 45.75 45.87 45.81 45.73 45.59 45.57 45.62 45.58 45.58 45.71 45.76 45.80 46.07 46.39 46.85 47.21 47.46 47.66 47.58 47.54 47.65 48.07 48.29 48.41 48.69 48.77 48.79 48.89 49.25 49.94 50.22 50.39 50.59 50.87 51.30 51.44 51.54 51.48 51.36
46.51 46.25 46.03 45.96 45.70 45.60 45.49 45.32 45.62 45.45 45.08 44.78 44.85 44.96 45.07 44.97 44.95 45.26 45.49 45.16 44.84 44.81 44.98 45.13 44.93 44.85 44.98 45.27 45.34 45.53 45.56 45.39 45.23 45.24 45.17 45.10 45.10 45.15 45.14 45.30 45.42 45.53 45.77 46.04 46.61 47.12 47.32 47.25 47.09 47.07 47.11 47.37 48.08 48.48 48.61 48.61 48.62 48.76 49.09 49.51 49.89 50.20 50.42 50.67 51.04 51.43 51.85 51.83 51.81
46.00 45.73 45.50 45.24 44.80 44.53 44.43 44.45 44.75 44.66 44.42 44.11 44.33 44.55 44.74 44.72 44.86 44.98 44.85 44.34 44.33 44.56 44.84 44.87 44.68 44.64 44.62 44.71 44.82 44.85 44.96 44.96 44.74 44.76 44.76 44.70 44.73 44.78 44.82 45.02 45.18 45.35 45.62 46.00 46.42 46.71 46.77 46.72 46.56 46.48 46.63 46.88 47.62 48.12 48.29 48.27 48.31 48.38 48.59 48.81 49.13 49.37 49.58 49.76 50.20 50.58 50.99 51.12 51.35
45.09 44.83 44.53 44.10 43.75 43.59 43.52 43.39 43.76 43.79 43.57 43.28 43.58 43.84 44.07 44.12 44.48 44.56 44.36 43.89 43.81 43.93 44.09 44.15 44.29 44.35 44.30 44.05 44.05 44.06 44.03 44.18 44.08 44.03 44.05 44.21 44.37 44.46 44.50 44.77 44.90 45.10 45.46 45.86 45.98 46.00 45.99 45.96 46.07 46.09 46.28 46.47 47.01 47.39 47.61 47.72 47.68 47.65 47.72 47.73 47.77 47.99 48.28 48.70 49.11 49.49 49.79 49.91 49.95
44.07 43.73 43.39 42.93 42.55 42.47 42.44 42.24 42.63 42.71 42.58 42.41 42.84 43.10 43.31 43.40 43.75 43.92 43.72 43.22 43.06 43.14 43.26 43.17 43.26 43.40 43.48 43.30 43.20 43.17 43.14 43.26 43.25 43.28 43.34 43.63 43.84 44.01 44.21 44.45 44.66 44.85 45.04 45.26 45.37 45.42 45.31 45.29 45.46 45.64 45.96 46.16 46.39 46.60 46.71 46.61 46.50 46.44 46.49 46.52 46.67 47.01 47.39 47.89 48.36 48.73 48.91 49.00 49.07
42.86 42.57 42.24 41.86 41.41 41.26 41.17 41.19 41.61 41.65 41.56 41.58 41.82 42.08 42.25 42.38 42.68 42.76 42.74 42.33 42.37 42.37 42.28 41.99 42.08 42.20 42.38 42.58 42.44 42.34 42.26 42.28 42.43 42.55 42.74 43.04 43.37 43.67 43.92 44.08 44.28 44.39 44.46 44.50 44.56 44.62 44.77 44.90 45.20 45.36 45.53 45.60 45.69 45.60 45.45 45.33 45.24 45.20 45.21 45.46 45.88 46.38 46.81 47.29 47.76 48.07 48.26 48.45 48.49
41.63 41.35 41.10 40.74 40.22 39.97 39.92 40.10 40.42 40.57 40.58 40.56 40.71 40.89 41.14 41.36 41.44 41.68 41.81 41.67 41.52 41.28 41.09 40.87 41.06 41.16 41.20 41.39 41.50 41.53 41.50 41.47 41.71 41.98 42.34 42.69 42.99 43.29 43.49 43.74 43.93 44.04 44.03 43.85 43.81 43.87 44.02 44.26 44.71 44.91 44.99 44.89 44.71 44.49 44.17 44.02 44.06 44.21 44.45 44.77 45.24 45.68 46.12 46.72 47.10 47.33 47.51 47.75 47.79
40.43 40.15 39.95 39.63 39.20 38.89 38.89 39.04 39.26 39.37 39.44 39.48 39.73 39.95 40.13 40.27 40.26 40.45 40.68 40.76 40.56 40.19 39.93 39.84 40.11 40.18 40.07 39.95 40.30 40.65 40.90 40.79 41.06 41.45 41.87 42.33 42.63 42.88 43.13 43.33 43.52 43.59 43.57 43.41 43.24 43.23 43.35 43.51 43.89 44.18 44.27 44.11 43.81 43.54 43.26 43.16 43.24 43.41 43.80 44.15 44.60 44.99 45.47 45.91 46.27 46.57 46.84 46.83 47.06
39.32 39.13 38.90 38.56 38.21 38.13 38.21 38.47 38.43 38.54 38.65 38.79 39.00 39.15 39.19 39.22 39.33 39.37 39.52 39.63 39.82 39.59 39.22 39.06 39.23 39.26 39.26 39.14 39.31 39.84 40.33 40.41 40.63 40.96 41.40 41.85 42.26 42.46 42.67 42.83 42.98 43.01 42.96 42.84 42.78 42.85 42.94 43.12 43.29 43.37 43.41 43.19 43.04 42.81 42.74 42.62 42.74 42.97 43.28 43.64 44.09 44.53 44.97 45.28 45.68 45.99 46.26 46.40 46.58
38.39 38.17 37.87 37.65 37.54 37.50 37.65 37.83 37.90 38.01 38.16 38.41 38.30 38.26 38.34 38.45 38.55 38.55 38.55 38.70 39.04 38.93 38.71 38.44 38.40 38.39 38.35 38.50 38.58 38.95 39.51 40.20 40.29 40.49 40.85 41.32 41.57 41.82 41.98 42.17 42.16 42.18 42.13 42.17 42.24 42.36 42.53 42.67 42.76 42.76 42.67 42.53 42.40 42.22 42.24 42.23 42.35 42.54 42.85 43.39 43.84 44.16 44.52 44.96 45.32 45.63 45.90 46.08 46.26
37.47 37.34 37.12 36.98 36.98 37.05 37.20 37.35 37.53 37.61 37.64 37.72 37.60 37.60 37.68 37.82 37.89 37.82 37.89 38.12 38.31 38.27 38.04 37.79 37.64 37.56 37.52 37.67 37.93 38.22 38.81 39.91 39.91 40.07 40.31 40.74 40.94 41.18 41.36 41.50 41.37 41.36 41.44 41.52 41.71 41.88 42.13 42.38 42.42 42.37 42.28 42.20 42.07 41.98 41.94 42.05 42.05 42.16 42.42 43.03 43.46 43.83 44.24 44.72 45.12 45.39 45.66 45.93 46.11
36.64 36.63 36.50 36.46 36.54 36.72 36.98 37.05 37.13 37.16 37.16 37.09 37.09 37.13 37.12 37.20 37.19 37.30 37.46 37.64 37.68 37.57 37.35 37.16 37.02 36.94 36.98 37.13 37.38 37.79 38.38 39.24 39.35 39.62 39.88 40.19 40.31 40.57 40.71 40.77 40.41 40.33 40.39 40.60 40.99 41.36 41.76 42.12 42.15 42.10 42.08 41.99 41.88 41.84 41.88 41.88 41.84 41.86 42.03 42.41 42.79 43.39 43.95 44.56 45.04 45.40 45.68 45.94 46.04
36.00 36.04 36.10 36.17 36.13 36.50 36.79 36.72 36.57 36.50 36.46 36.42 36.50 36.46 36.50 36.57 36.68 36.79 36.94 37.01 37.09 36.94 36.72 36.72 36.68 36.61 36.64 36.91 37.24 37.49 37.79 38.24 38.50 38.91 39.21 39.40 39.51 39.57 39.59 39.63 39.34 39.20 39.41 39.94 40.43 40.91 41.31 41.54 41.60 41.73 41.79 41.73 41.65 41.66 41.70 41.74 41.71 41.67 41.72 41.83 42.28 42.91 43.67 44.48 45.06 45.50 45.81 45.95 46.09
35.42 35.53 35.73 35.91 35.66 35.65 35.76 35.75 35.72 35.68 35.64 35.68 35.72 35.76 35.84 35.95 36.06 36.17 36.18 36.21 36.21 36.14 36.14 36.39 36.39 36.35 36.46 36.83 37.05 37.16 37.27 37.35 37.57 37.91 38.24 38.50 38.56 38.47 38.42 38.42 38.34 38.43 38.76 39.55 40.54 41.22 41.50 41.33 41.20 41.30 41.46 41.63 41.59 41.56 41.57 41.57 41.50 41.42 41.43 41.48 41.86 42.56 43.43 44.33 45.07 45.51 45.74 45.66 45.66
34.81 34.88 35.04 35.03 34.85 34.85 34.88 34.94 34.79 34.75 34.83 34.91 35.03 35.07 35.18 35.22 35.41 35.45 35.45 35.38 35.38 35.38 35.45 35.53 35.74 36.03 36.35 36.57 36.72 36.79 36.83 36.87 36.98 37.16 37.35 37.50 37.49 37.45 37.41 37.44 37.47 37.79 38.40 39.33 41.05 41.97 42.33 42.21 41.76 41.43 41.20 41.32 41.31 41.31 41.31 41.35 41.32 41.24 41.20 41.29 41.59 42.21 43.01 43.98 44.66 45.13 45.27 45.10 44.75
34.24 34.15 34.09 34.02 34.08 34.00 33.92 33.98 33.98 34.01 34.10 34.25 34.33 34.38 34.42 34.57 34.83 34.76 34.62 34.54 34.55 34.66 34.77 34.95 35.20 35.88 36.46 36.28 36.21 36.24 36.39 36.60 36.72 36.68 36.61 36.50 36.36 36.36 36.36 36.50 36.79 37.12 37.94 39.33 40.77 41.60 42.08 42.55 42.63 42.27 41.59 40.97 40.84 40.75 40.78 40.86 40.98 41.02 41.11 41.19 41.49 41.99 42.61 43.45 43.99 44.38 44.54 44.45 43.90
33.51 33.38 33.25 33.39 33.21 33.13 33.12 33.22 33.37 33.40 33.48 33.52 33.54 33.58 33.81 33.96 34.15 34.04 33.83 33.76 33.84 34.05 34.30 34.51 34.79 35.62 36.27 35.80 35.50 35.46 35.68 36.08 36.15 36.05 35.90 35.65 35.44 35.33 35.33 35.70 36.06 36.49 37.45 39.25 40.50 41.20 41.67 42.22 42.54 42.51 42.01 40.82 40.39 40.23 40.19 40.30 40.54 40.73 40.93 41.09 41.41 41.91 42.45 42.98 43.40 43.57 43.57 43.32 42.86
32.64 32.65 32.59 32.53 32.38 32.41 32.51 32.66 32.69 32.66 32.74 32.85 32.96 33.14 33.30 33.35 33.11 33.08 33.05 33.09 33.29 33.50 33.73 34.01 34.59 35.14 35.39 35.16 34.98 34.94 35.08 35.29 35.39 35.40 35.30 35.05 34.75 34.64 34.69 35.04 35.29 36.12 37.45 39.33 40.26 40.84 41.32 41.75 42.11 42.27 42.16 41.42 40.47 40.07 39.99 40.03 40.23 40.50 40.74 40.97 41.34 41.87 42.41 42.94 43.10 42.90 42.57 42.07 41.95
31.86 31.87 31.84 31.67 31.66 31.73 31.87 31.98 31.98 32.03 32.18 32.37 32.54 32.65 32.69 32.57 32.43 32.33 32.40 32.50 32.54 32.72 33.00 33.58 34.32 34.57 34.53 34.27 34.40 34.50 34.50 34.50 34.65 34.63 34.48 34.24 34.08 34.09 34.25 34.52 34.67 35.67 37.37 39.52 40.06 40.53 40.88 41.20 41.56 41.92 42.13 42.14 40.87 40.15 39.95 40.07 40.23 40.42 40.61 40.97 41.51 42.12 42.61 42.85 42.64 42.18 41.64 41.27 41.19
31.30 31.24 31.21 31.04 31.07 31.18 31.33 31.41 31.48 31.61 31.82 32.15 32.12 32.02 31.88 31.82 31.71 31.73 31.78 31.83 31.86 32.26 32.83 33.38 33.53 33.47 33.36 33.45 33.71 33.86 33.90 33.92 34.03 33.91 33.66 33.35 33.39 33.55 33.77 34.14 34.11 35.03 36.76 39.13 39.79 40.18 40.49 40.81 41.13 41.53 41.90 42.23 41.31 40.51 40.15 40.23 40.27 40.43 40.63 41.07 41.59 41.94 42.04 41.99 41.40 40.86 40.62 40.55 40.43
30.66 30.66 30.58 30.56 30.53 30.60 30.78 30.97 31.10 31.28 31.40 31.57 31.33 31.19 31.14 31.04 31.00 31.08 31.18 31.32 31.68 32.37 32.96 32.87 32.45 32.36 32.52 32.85 33.00 33.00 33.03 33.17 33.24 33.18 33.03 32.79 33.21 33.27 33.16 33.18 33.34 34.45 36.28 38.79 39.44 39.91 40.26 40.50 40.82 41.14 41.58 42.11 41.51 40.87 40.43 40.47 40.55 40.63 40.78 41.18 41.29 41.34 41.11 40.90 40.45 40.03 39.77 39.63 39.52
30.13 30.13 30.09 30.04 30.04 30.16 30.42 30.58 30.81 30.85 30.82 30.66 30.55 30.54 30.53 30.49 30.49 30.69 30.90 31.27 31.63 31.83 31.94 31.79 31.66 31.68 31.88 32.18 32.31 32.29 32.35 32.41 32.47 32.66 32.77 32.69 32.41 32.34 32.37 32.73 32.87 34.07 36.03 38.44 39.17 39.56 39.95 40.27 40.50 40.94 41.47 42.08 41.75 41.19 40.71 40.75 40.79 40.86 40.86 40.72 40.52 40.21 39.96 39.94 39.78 39.46 39.04 38.94 38.68
29.61 29.64 29.59 29.54 29.62 29.85 30.05 30.21 30.33 30.35 30.34 30.20 30.09 30.08 30.09 30.09 30.17 30.39 30.72 31.20 31.40 31.22 31.00 31.06 31.10 31.20 31.25 31.45 31.53 31.58 31.75 31.99 32.20 32.48 32.62 32.49 31.98 31.75 31.84 32.35 32.57 34.12 36.29 38.17 38.82 39.29 39.60 39.99 40.27 40.74 41.31 42.04 41.63 41.07 40.70 40.78 40.90 40.86 40.62 40.32 39.98 39.60 39.21 38.85 38.93 38.86 38.51 38.14 37.84
29.20 29.20 29.20 29.19 29.37 29.53 29.67 29.75 29.86 29.82 29.74 29.67 29.70 29.69 29.70 29.67 29.69 29.93 30.31 31.02 31.26 31.13 30.96 30.94 30.93 30.94 31.03 31.19 31.11 31.15 31.43 32.19 31.99 31.70 31.51 31.44 31.29 31.29 31.44 31.69 32.30 34.26 36.59 38.02 38.55 38.98 39.37 39.64 40.03 40.55 41.07 41.75 41.15 40.50 40.02 39.82 39.91 39.83 39.62 39.33 39.23 39.17 38.96 38.81 38.53 38.26 37.81 37.26 37.06
28.73 28.80 28.80 28.91 29.07 29.19 29.24 29.28 29.35 29.28 29.24 29.17 29.26 29.33 29.32 29.30 29.25 29.49 30.05 31.04 31.33 31.06 30.65 30.67 30.80 30.85 30.97 30.98 30.94 31.00 31.15 31.31 31.16 31.03 31.03 31.05 30.96 30.91 30.96 31.04 31.70 33.90 36.42 37.74 38.24 38.63 38.98 39.36 39.72 40.23 40.71 40.86 40.06 39.31 38.76 38.30 38.27 38.11 38.05 38.08 38.29 38.35 38.35 38.29 38.15 37.91 37.39 36.77 36.29
28.45 28.49 28.49 28.58 28.66 28.75 28.76 28.87 28.85 28.85 28.71 28.73 28.79 28.87 28.87 28.99 29.07 29.46 30.11 31.16 30.93 30.43 29.99 30.11 30.29 30.30 30.30 30.29 30.50 30.82 30.92 30.51 30.49 30.58 30.74 30.98 30.74 30.44 30.33 30.52 31.09 33.15 35.69 37.27 37.81 38.24 38.62 39.01 39.44 39.91 40.11 39.74 38.67 38.02 37.50 37.06 36.91 36.60 36.42 36.63 37.15 37.41 37.55 37.69 37.73 37.46 36.98 36.49 36.07
28.31 28.34 28.30 28.34 28.36 28.41 28.45 28.48 28.42 28.32 28.23 28.27 28.29 28.39 28.45 28.62 28.91 29.35 30.04 30.86 30.03 29.58 29.50 29.63 29.64 29.61 29.60 29.65 29.87 30.16 30.39 30.27 30.21 30.23 30.43 30.85 30.56 30.18 30.03 30.27 30.64 32.20 34.48 36.53 37.34 37.84 38.31 38.74 39.17 39.56 39.35 38.36 37.36 36.71 36.35 36.07 35.89 35.56 35.32 35.25 35.87 36.34 36.79 37.41 37.48 37.06 36.57 36.09 36.27
28.41 28.39 28.29 28.14 28.09 28.11 28.13 28.12 27.97 27.86 27.82 27.88 27.98 28.14 28.37 28.54 28.78 29.34 30.00 30.80 29.65 29.16 29.00 29.17 29.11 29.14 29.28 29.42 29.72 29.90 30.03 30.15 30.26 30.16 30.05 30.13 30.13 30.11 30.11 30.12 30.45 31.53 33.35 35.69 36.83 37.53 38.07 38.54 39.05 39.28 38.85 37.39 36.32 35.76 35.51 35.23 34.86 34.68 34.56 34.59 35.14 35.57 36.12 37.09 37.35 37.08 36.52 36.17 37.29
28.60 28.46 28.17 27.91 27.78 27.84 27.79 27.65 27.59 27.57 27.57 27.68 27.78 27.99 28.22 28.44 28.90 29.56 30.20 30.58 29.48 28.95 28.71 28.75 28.76 28.95 29.34 29.88 29.91 29.85 29.73 29.77 29.95 30.06 29.98 29.66 30.03 30.63 30.93 30.50 30.43 31.19 32.76 35.12 36.41 37.22 37.80 38.38 38.81 39.05 38.69 37.26 35.88 35.25 34.95 34.61 34.19 33.92 33.85 34.07 34.59 34.95 35.37 36.35 36.65 36.78 36.55 36.18 38.09
28.53 28.31 27.98 27.66 27.59 27.54 27.52 27.39 27.39 27.46 27.59 27.62 27.57 27.73 28.03 28.52 29.26 29.87 30.22 30.09 29.38 28.97 28.82 28.80 28.73 29.03 29.54 30.34 29.87 29.42 29.11 29.22 29.35 29.55 29.74 29.80 30.29 31.30 31.84 30.83 30.26 30.70 32.04 34.33 35.95 36.95 37.65 38.27 38.58 38.78 38.27 36.67 35.38 34.82 34.48 34.15 33.64 33.33 33.28 33.52 33.89 34.33 34.80 35.40 35.89 36.19 36.21 36.08 37.35
28.34 28.08 27.83 27.60 27.46 27.36 27.30 27.20 27.25 27.38 27.48 27.42 27.34 27.86 28.68 29.47 29.57 29.53 29.40 29.29 28.97 28.87 28.96 29.02 28.96 29.04 29.29 29.95 29.50 29.00 28.61 28.58 28.87 29.11 29.44 29.83 30.15 30.91 31.29 30.41 29.98 30.07 30.94 32.90 35.12 36.57 37.53 38.15 38.35 38.39 37.90 36.47 35.13 34.46 34.05 33.60 33.01 32.60 32.49 32.87 33.35 33.78 34.20 34.68 35.21 35.59 35.83 35.85 36.24
MSLP
1012.56 1012.48 1012.40 1012.28 1012.16 1012.08 1012.00 1011.88 1011.76 1011.72 1011.60 1011.56 1011.48 1011.36 1011.28 1011.16 1011.04 1010.96 1010.84 1010.72 1010.60 1010.52 1010.36 1010.20 1010.08 1009.96 1009.84 1009.68 1009.56 1009.40 1009.24 1009.08 1008.92 1008.76 1008.64 1008.48 1008.36 1008.20 1008.04 1007.88 1007.72 1007.60 1007.44 1007.24 1007.12 1006.96 1006.80 1006.64 1006.52 1006.36 1006.16 1006.00 1005.80 1005.64 1005.44 1005.28 1005.08 1004.92 1004.76 1004.64 1004.44 1004.28 1004.12 1003.96 1003.72 1003.60 1003.44 1003.32 1003.20
1012.72 1012.64 1012.56 1012.44 1012.32 1012.20 1012.12 1012.00 1011.92 1011.84 1011.72 1011.64 1011.60 1011.48 1011.40 1011.28 1011.16 1011.08 1010.96 1010.88 1010.76 1010.60 1010.48 1010.32 1010.16 1010.04 1009.92 1009.76 1009.64 1009.48 1009.36 1009.16 1009.00 1008.88 1008.72 1008.56 1008.44 1008.28 1008.12 1008.00 1007.80 1007.60 1007.44 1007.28 1007.12 1006.92 1006.76 1006.60 1006.48 1006.32 1006.12 1005.92 1005.72 1005.56 1005.36 1005.16 1005.04 1004.88 1004.64 1004.48 1004.32 1004.16 1004.00 1003.80 1003.64 1003.48 1003.36 1003.16 1003.04
1012.92 1012.84 1012.72 1012.64 1012.52 1012.44 1012.32 1012.20 1012.16 1012.04 1011.92 1011.80 1011.72 1011.60 1011.48 1011.40 1011.28 1011.20 1011.08 1010.96 1010.84 1010.72 1010.56 1010.44 1010.32 1010.16 1010.00 1009.88 1009.72 1009.60 1009.44 1009.28 1009.16 1009.00 1008.84 1008.64 1008.48 1008.36 1008.20 1008.04 1007.88 1007.72 1007.52 1007.32 1007.16 1007.00 1006.80 1006.64 1006.48 1006.32 1006.08 1005.88 1005.72 1005.52 1005.28 1005.04 1004.92 1004.76 1004.60 1004.40 1004.24 1004.08 1003.88 1003.72 1003.56 1003.40 1003.24 1003.08 1002.92
1013.04 1013.00 1012.92 1012.84 1012.76 1012.72 1012.60 1012.40 1012.32 1012.16 1012.04 1011.92 1011.80 1011.68 1011.60 1011.52 1011.44 1011.32 1011.20 1011.08 1010.92 1010.80 1010.72 1010.60 1010.44 1010.28 1010.12 1010.00 1009.84 1009.68 1009.52 1009.40 1009.24 1009.08 1008.92 1008.76 1008.60 1008.40 1008.24 1008.08 1007.88 1007.72 1007.56 1007.36 1007.16 1007.00 1006.84 1006.68 1006.48 1006.28 1006.04 1005.88 1005.68 1005.44 1005.20 1005.00 1004.84 1004.68 1004.52 1004.32 1004.16 1004.00 1003.88 1003.68 1003.44 1003.24 1003.04 1002.88 1002.72
1013.16 1013.16 1013.08 1013.00 1012.88 1012.76 1012.68 1012.56 1012.44 1012.32 1012.16 1012.04 1011.96 1011.84 1011.72 1011.64 1011.52 1011.40 1011.28 1011.16 1011.04 1010.96 1010.84 1010.72 1010.56 1010.36 1010.20 1010.08 1009.92 1009.76 1009.60 1009.48 1009.28 1009.16 1009.00 1008.88 1008.68 1008.48 1008.32 1008.16 1008.00 1007.80 1007.60 1007.44 1007.24 1007.04 1006.88 1006.72 1006.48 1006.28 1006.04 1005.84 1005.60 1005.36 1005.16 1004.96 1004.80 1004.60 1004.44 1004.28 1004.12 1003.92 1003.72 1003.52 1003.32 1003.16 1003.00 1002.80 1002.60
1013.32 1013.24 1013.16 1013.08 1012.96 1012.84 1012.72 1012.60 1012.48 1012.36 1012.28 1012.16 1012.08 1012.00 1011.88 1011.76 1011.64 1011.56 1011.44 1011.28 1011.16 1011.04 1010.88 1010.72 1010.60 1010.44 1010.32 1010.16 1010.00 1009.88 1009.72 1009.56 1009.40 1009.24 1009.08 1008.92 1008.72 1008.56 1008.40 1008.20 1008.04 1007.88 1007.68 1007.48 1007.28 1007.12 1006.92 1006.72 1006.48 1006.28 1006.00 1005.80 1005.56 1005.28 1005.08 1004.96 1004.80 1004.60 1004.44 1004.20 1004.00 1003.80 1003.60 1003.44 1003.24 1003.04 1002.88 1002.72 1002.52
1013.44 1013.36 1013.28 1013.16 1013.04 1012.92 1012.84 1012.72 1012.60 1012.44 1012.36 1012.28 1012.24 1012.16 1012.04 1011.88 1011.80 1011.72 1011.56 1011.40 1011.24 1011.12 1010.92 1010.76 1010.64 1010.56 1010.40 1010.24 1010.08 1009.88 1009.72 1009.60 1009.44 1009.28 1009.16 1009.00 1008.80 1008.60 1008.44 1008.28 1008.12 1007.92 1007.72 1007.56 1007.36 1007.16 1006.96 1006.76 1006.56 1006.32 1006.00 1005.80 1005.56 1005.28 1005.08 1004.96 1004.80 1004.60 1004.40 1004.16 1003.88 1003.72 1003.48 1003.28 1003.12 1002.92 1002.76 1002.60 1002.44
1013.56 1013.48 1013.44 1013.32 1013.20 1013.08 1012.96 1012.84 1012.72 1012.60 1012.52 1012.44 1012.36 1012.28 1012.16 1012.00 1011.88 1011.76 1011.60 1011.44 1011.32 1011.20 1011.04 1010.88 1010.72 1010.64 1010.48 1010.32 1010.16 1009.96 1009.80 1009.60 1009.44 1009.32 1009.16 1009.00 1008.84 1008.64 1008.48 1008.32 1008.16 1007.96 1007.80 1007.60 1007.44 1007.24 1007.00 1006.80 1006.60 1006.32 1006.08 1005.84 1005.60 1005.36 1005.16 1005.00 1004.80 1004.60 1004.36 1004.16 1003.88 1003.60 1003.44 1003.24 1003.00 1002.80 1002.68 1002.52 1002.32
1013.72 1013.64 1013.56 1013.44 1013.32 1013.20 1013.08 1012.96 1012.88 1012.76 1012.72 1012.60 1012.52 1012.44 1012.28 1012.12 1012.00 1011.84 1011.68 1011.56 1011.44 1011.28 1011.12 1010.92 1010.76 1010.64 1010.48 1010.36 1010.20 1010.00 1009.84 1009.68 1009.52 1009.32 1009.16 1009.04 1008.88 1008.68 1008.52 1008.32 1008.16 1007.96 1007.80 1007.64 1007.44 1007.24 1007.04 1006.84 1006.60 1006.36 1006.16 1005.92 1005.72 1005.44 1005.20 1005.00 1004.80 1004.60 1004.32 1004.12 1003.84 1003.56 1003.36 1003.20 1002.96 1002.76 1002.60 1002.44 1002.24
1013.92 1013.80 1013.68 1013.60 1013.44 1013.32 1013.20 1013.08 1013.00 1012.88 1012.80 1012.72 1012.60 1012.44 1012.32 1012.16 1012.00 1011.92 1011.80 1011.60 1011.48 1011.32 1011.16 1011.00 1010.84 1010.68 1010.56 1010.40 1010.24 1010.04 1009.88 1009.72 1009.56 1009.40 1009.20 1009.04 1008.88 1008.72 1008.56 1008.36 1008.20 1008.00 1007.80 1007.64 1007.44 1007.28 1007.08 1006.88 1006.60 1006.40 1006.16 1006.00 1005.76 1005.48 1005.20 1005.00 1004.84 1004.60 1004.36 1004.12 1003.88 1003.60 1003.32 1003.16 1002.96 1002.72 1002.52 1002.32 1002.12
1014.04 1013.96 1013.84 1013.72 1013.60 1013.44 1013.28 1013.20 1013.08 1012.96 1012.88 1012.76 1012.64 1012.48 1012.36 1012.20 1012.08 1012.00 1011.84 1011.68 1011.52 1011.36 1011.20 1011.04 1010.88 1010.72 1010.60 1010.40 1010.24 1010.08 1009.92 1009.76 1009.60 1009.44 1009.24 1009.04 1008.92 1008.76 1008.60 1008.44 1008.28 1008.08 1007.88 1007.72 1007.48 1007.28 1007.08 1006.88 1006.64 1006.44 1006.20 1006.00 1005.76 1005.52 1005.20 1005.00 1004.84 1004.64 1004.40 1004.16 1003.92 1003.64 1003.36 1003.12 1002.92 1002.72 1002.48 1002.28 1002.04
1014.16 1014.04 1013.96 1013.88 1013.72 1013.60 1013.44 1013.32 1013.16 1013.00 1012.96 1012.88 1012.72 1012.56 1012.44 1012.32 1012.16 1012.00 1011.88 1011.72 1011.60 1011.40 1011.20 1011.08 1010.96 1010.80 1010.60 1010.44 1010.28 1010.12 1009.92 1009.76 1009.60 1009.44 1009.28 1009.08 1008.92 1008.76 1008.60 1008.44 1008.28 1008.12 1007.92 1007.72 1007.52 1007.32 1007.16 1006.92 1006.72 1006.44 1006.20 1006.00 1005.76 1005.52 1005.28 1005.04 1004.88 1004.68 1004.44 1004.16 1003.92 1003.68 1003.40 1003.16 1002.96 1002.76 1002.52 1002.28 1002.04
1014.28 1014.16 1014.04 1013.96 1013.80 1013.68 1013.56 1013.44 1013.28 1013.16 1013.04 1012.96 1012.84 1012.68 1012.52 1012.40 1012.24 1012.08 1011.92 1011.80 1011.60 1011.44 1011.28 1011.16 1011.00 1010.88 1010.68 1010.48 1010.32 1010.16 1009.96 1009.80 1009.64 1009.48 1009.28 1009.12 1008.92 1008.76 1008.60 1008.44 1008.28 1008.08 1007.92 1007.72 1007.56 1007.36 1007.16 1006.96 1006.72 1006.52 1006.24 1006.00 1005.72 1005.56 1005.36 1005.16 1004.96 1004.72 1004.44 1004.16 1003.96 1003.72 1003.44 1003.20 1003.00 1002.80 1002.60 1002.40 1002.16
1014.36 1014.28 1014.16 1014.08 1013.96 1013.80 1013.68 1013.56 1013.40 1013.28 1013.16 1013.08 1012.96 1012.80 1012.64 1012.48 1012.32 1012.16 1012.04 1011.88 1011.72 1011.60 1011.40 1011.20 1011.04 1010.88 1010.72 1010.60 1010.40 1010.24 1010.04 1009.88 1009.68 1009.48 1009.28 1009.12 1008.92 1008.76 1008.60 1008.44 1008.24 1008.08 1007.88 1007.72 1007.52 1007.36 1007.20 1007.00 1006.72 1006.52 1006.28 1006.00 1005.76 1005.60 1005.40 1005.20 1005.00 1004.80 1004.56 1004.28 1004.00 1003.72 1003.48 1003.24 1003.00 1002.84 1002.64 1002.44 1002.20
1014.48 1014.40 1014.32 1014.20 1014.12 1014.00 1013.88 1013.72 1013.60 1013.44 1013.36 1013.24 1013.12 1012.96 1012.80 1012.60 1012.44 1012.32 1012.16 1012.00 1011.88 1011.68 1011.52 1011.36 1011.16 1011.00 1010.84 1010.68 1010.48 1010.28 1010.08 1009.88 1009.68 1009.44 1009.24 1009.04 1008.88 1008.72 1008.56 1008.36 1008.20 1008.04 1007.88 1007.68 1007.48 1007.32 1007.16 1006.96 1006.72 1006.48 1006.28 1006.04 1005.84 1005.60 1005.44 1005.24 1005.04 1004.84 1004.60 1004.32 1004.04 1003.80 1003.52 1003.28 1003.04 1002.88 1002.68 1002.44 1002.24
1014.60 1014.52 1014.44 1014.32 1014.24 1014.16 1014.04 1013.92 1013.80 1013.72 1013.60 1013.44 1013.28 1013.12 1012.96 1012.80 1012.60 1012.44 1012.32 1012.16 1011.96 1011.76 1011.64 1011.48 1011.28 1011.04 1010.88 1010.72 1010.56 1010.32 1010.12 1009.88 1009.72 1009.48 1009.28 1009.04 1008.88 1008.72 1008.52 1008.36 1008.16 1008.00 1007.84 1007.64 1007.44 1007.28 1007.08 1006.88 1006.72 1006.48 1006.32 1006.08 1005.88 1005.64 1005.44 1005.24 1005.00 1004.76 1004.56 1004.32 1004.08 1003.84 1003.60 1003.28 1003.12 1002.88 1002.68 1002.48 1002.28
1014.80 1014.68 1014.60 1014.48 1014.44 1014.32 1014.24 1014.16 1014.00 1013.88 1013.72 1013.60 1013.40 1013.28 1013.12 1012.96 1012.76 1012.60 1012.44 1012.32 1012.08 1011.88 1011.72 1011.60 1011.40 1011.16 1010.96 1010.72 1010.60 1010.44 1010.16 1009.88 1009.72 1009.56 1009.36 1009.16 1008.92 1008.72 1008.52 1008.36 1008.16 1007.96 1007.76 1007.60 1007.40 1007.20 1007.00 1006.84 1006.64 1006.44 1006.28 1006.08 1005.88 1005.68 1005.44 1005.24 1005.00 1004.72 1004.48 1004.28 1004.00 1003.80 1003.60 1003.32 1003.12 1002.88 1002.68 1002.44 1002.24
1014.96 1014.88 1014.72 1014.68 1014.60 1014.52 1014.40 1014.32 1014.16 1014.00 1013.88 1013.72 1013.56 1013.40 1013.24 1013.08 1012.88 1012.72 1012.60 1012.40 1012.24 1012.04 1011.84 1011.64 1011.48 1011.28 1011.08 1010.88 1010.68 1010.52 1010.32 1010.00 1009.80 1009.60 1009.40 1009.20 1009.00 1008.76 1008.56 1008.36 1008.16 1007.96 1007.76 1007.60 1007.36 1007.16 1006.96 1006.76 1006.60 1006.40 1006.24 1006.04 1005.84 1005.60 1005.40 1005.16 1004.88 1004.64 1004.44 1004.20 1003.96 1003.72 1003.56 1003.28 1003.12 1002.88 1002.64 1002.40 1002.16
1015.16 1015.00 1014.92 1014.88 1014.76 1014.64 1014.56 1014.44 1014.32 1014.16 1014.00 1013.84 1013.68 1013.52 1013.36 1013.20 1013.00 1012.84 1012.64 1012.44 1012.32 1012.16 1011.96 1011.72 1011.52 1011.32 1011.16 1011.00 1010.76 1010.60 1010.40 1010.16 1009.88 1009.68 1009.44 1009.24 1009.00 1008.80 1008.60 1008.36 1008.12 1007.92 1007.72 1007.56 1007.36 1007.16 1006.92 1006.72 1006.56 1006.36 1006.16 1005.96 1005.72 1005.52 1005.28 1005.04 1004.80 1004.56 1004.32 1004.12 1003.88 1003.68 1003.44 1003.24 1003.04 1002.80 1002.60 1002.36 1002.12
1015.28 1015.20 1015.12 1015.00 1014.92 1014.80 1014.68 1014.56 1014.44 1014.28 1014.12 1013.96 1013.80 1013.60 1013.44 1013.28 1013.08 1012.92 1012.72 1012.56 1012.40 1012.24 1012.08 1011.88 1011.60 1011.44 1011.20 1011.00 1010.84 1010.64 1010.44 1010.20 1010.00 1009.72 1009.52 1009.28 1009.08 1008.88 1008.64 1008.40 1008.16 1007.92 1007.72 1007.56 1007.28 1007.12 1006.92 1006.72 1006.56 1006.32 1006.12 1005.88 1005.64 1005.40 1005.16 1004.88 1004.64 1004.44 1004.20 1004.00 1003.76 1003.56 1003.32 1003.12 1002.92 1002.72 1002.48 1002.28 1002.00
1015.44 1015.36 1015.24 1015.16 1015.00 1014.92 1014.80 1014.68 1014.52 1014.36 1014.20 1014.04 1013.88 1013.68 1013.52 1013.32 1013.16 1013.00 1012.88 1012.68 1012.48 1012.32 1012.16 1011.96 1011.76 1011.60 1011.36 1011.16 1010.92 1010.72 1010.48 1010.32 1010.08 1009.88 1009.60 1009.40 1009.16 1008.96 1008.72 1008.48 1008.20 1007.96 1007.72 1007.56 1007.32 1007.12 1006.92 1006.72 1006.52 1006.32 1006.08 1005.84 1005.56 1005.28 1005.04 1004.76 1004.48 1004.24 1004.00 1003.84 1003.60 1003.40 1003.20 1003.00 1002.80 1002.56 1002.32 1002.12 1001.92
1015.56 1015.44 1015.32 1015.20 1015.12 1015.00 1014.88 1014.72 1014.60 1014.44 1014.32 1014.12 1013.92 1013.76 1013.60 1013.40 1013.24 1013.12 1012.92 1012.72 1012.60 1012.40 1012.24 1012.08 1011.88 1011.72 1011.48 1011.28 1011.08 1010.84 1010.56 1010.36 1010.16 1009.96 1009.72 1009.48 1009.24 1009.00 1008.80 1008.60 1008.32 1008.04 1007.80 1007.60 1007.36 1007.16 1006.92 1006.72 1006.48 1006.28 1006.00 1005.72 1005.44 1005.16 1004.92 1004.68 1004.40 1004.12 1003.84 1003.64 1003.44 1003.20 1003.00 1002.88 1002.64 1002.44 1002.20 1002.00 1001.80
1015.64 1015.56 1015.44 1015.28 1015.16 1015.04 1014.92 1014.80 1014.64 1014.48 1014.32 1014.16 1014.00 1013.84 1013.68 1013.52 1013.32 1013.16 1013.00 1012.80 1012.68 1012.52 1012.32 1012.16 1012.00 1011.80 1011.60 1011.40 1011.16 1010.92 1010.64 1010.40 1010.20 1010.00 1009.80 1009.60 1009.32 1009.08 1008.88 1008.68 1008.44 1008.16 1007.92 1007.72 1007.48 1007.28 1007.04 1006.80 1006.52 1006.28 1006.00 1005.72 1005.40 1005.08 1004.84 1004.60 1004.32 1004.00 1003.72 1003.48 1003.24 1003.00 1002.80 1002.64 1002.44 1002.28 1002.04 1001.88 1001.68
1015.72 1015.60 1015.48 1015.36 1015.24 1015.12 1015.00 1014.84 1014.72 1014.56 1014.40 1014.24 1014.08 1013.96 1013.76 1013.60 1013.44 1013.20 1013.04 1012.88 1012.76 1012.60 1012.44 1012.28 1012.12 1011.88 1011.68 1011.44 1011.24 1011.00 1010.80 1010.56 1010.28 1010.00 1009.80 1009.60 1009.44 1009.16 1008.96 1008.72 1008.52 1008.28 1008.04 1007.80 1007.60 1007.44 1007.20 1006.96 1006.64 1006.32 1006.00 1005.72 1005.44 1005.12 1004.80 1004.56 1004.28 1004.00 1003.68 1003.40 1003.12 1002.88 1002.60 1002.44 1002.32 1002.12 1001.92 1001.76 1001.60
1015.80 1015.68 1015.56 1015.44 1015.32 1015.16 1015.04 1014.88 1014.80 1014.64 1014.48 1014.32 1014.16 1014.00 1013.88 1013.68 1013.48 1013.28 1013.16 1013.00 1012.88 1012.72 1012.56 1012.36 1012.16 1011.96 1011.72 1011.48 1011.28 1011.12 1010.88 1010.68 1010.44 1010.12 1009.84 1009.60 1009.44 1009.24 1009.04 1008.84 1008.60 1008.36 1008.16 1007.88 1007.68 1007.44 1007.20 1007.00 1006.72 1006.44 1006.08 1005.72 1005.44 1005.12 1004.80 1004.48 1004.20 1003.92 1003.64 1003.36 1003.08 1002.80 1002.52 1002.28 1002.08 1001.96 1001.80 1001.64 1001.44
1015.88 1015.72 1015.64 1015.52 1015.40 1015.28 1015.16 1015.00 1014.88 1014.72 1014.60 1014.44 1014.28 1014.12 1013.96 1013.76 1013.60 1013.44 1013.28 1013.16 1013.00 1012.84 1012.64 1012.44 1012.24 1012.00 1011.76 1011.56 1011.32 1011.16 1010.96 1010.76 1010.52 1010.28 1010.00 1009.72 1009.48 1009.28 1009.12 1008.92 1008.68 1008.44 1008.20 1007.92 1007.64 1007.36 1007.12 1006.88 1006.60 1006.36 1006.12 1005.80 1005.44 1005.16 1004.80 1004.44 1004.12 1003.88 1003.60 1003.28 1003.00 1002.76 1002.48 1002.24 1002.00 1001.84 1001.68 1001.48 1001.32
1015.92 1015.84 1015.72 1015.60 1015.44 1015.32 1015.20 1015.08 1014.92 1014.80 1014.64 1014.52 1014.36 1014.20 1014.04 1013.88 1013.72 1013.56 1013.44 1013.28 1013.12 1012.92 1012.72 1012.56 1012.32 1012.08 1011.88 1011.60 1011.44 1011.20 1011.00 1010.80 1010.60 1010.32 1010.08 1009.84 1009.60 1009.36 1009.12 1008.92 1008.72 1008.48 1008.24 1007.96 1007.60 1007.32 1007.04 1006.72 1006.48 1006.28 1006.04 1005.80 1005.48 1005.16 1004.88 1004.44 1004.08 1003.80 1003.52 1003.20 1002.92 1002.68 1002.48 1002.28 1002.00 1001.80 1001.60 1001.44 1001.24
1016.00 1015.88 1015.76 1015.64 1015.48 1015.40 1015.28 1015.12 1015.00 1014.88 1014.72 1014.60 1014.44 1014.28 1014.12 1013.96 1013.80 1013.68 1013.52 1013.36 1013.16 1012.96 1012.76 1012.60 1012.36 1012.16 1011.96 1011.72 1011.48 1011.28 1011.08 1010.88 1010.60 1010.40 1010.16 1009.92 1009.72 1009.44 1009.20 1008.96 1008.72 1008.44 1008.20 1007.92 1007.60 1007.28 1007.00 1006.68 1006.44 1006.16 1005.92 1005.72 1005.44 1005.16 1004.80 1004.44 1004.04 1003.72 1003.44 1003.12 1002.88 1002.64 1002.44 1002.24 1002.00 1001.80 1001.60 1001.40 1001.16
1016.04 1015.92 1015.76 1015.68 1015.56 1015.44 1015.28 1015.16 1015.04 1014.92 1014.80 1014.68 1014.52 1014.32 1014.16 1014.04 1013.88 1013.72 1013.60 1013.44 1013.24 1013.04 1012.88 1012.64 1012.44 1012.24 1012.04 1011.84 1011.60 1011.32 1011.08 1010.88 1010.68 1010.44 1010.20 1009.96 1009.68 1009.44 1009.24 1009.00 1008.72 1008.44 1008.16 1007.88 1007.56 1007.24 1006.92 1006.64 1006.36 1006.08 1005.84 1005.60 1005.40 1005.08 1004.72 1004.40 1004.00 1003.68 1003.36 1003.08 1002.84 1002.60 1002.40 1002.20 1002.04 1001.88 1001.64 1001.44 1001.16
1016.08 1015.96 1015.88 1015.72 1015.60 1015.48 1015.36 1015.28 1015.16 1015.00 1014.88 1014.72 1014.60 1014.40 1014.28 1014.16 1014.00 1013.80 1013.64 1013.48 1013.32 1013.16 1013.00 1012.76 1012.52 1012.32 1012.12 1011.88 1011.64 1011.36 1011.12 1010.92 1010.72 1010.48 1010.24 1010.00 1009.72 1009.44 1009.16 1008.96 1008.72 1008.44 1008.16 1007.84 1007.48 1007.16 1006.88 1006.60 1006.32 1006.04 1005.76 1005.48 1005.28 1005.00 1004.64 1004.28 1003.92 1003.60 1003.28 1003.00 1002.76 1002.60 1002.44 1002.24 1002.08 1001.88 1001.68 1001.44 1001.24
1016.12 1016.00 1015.88 1015.76 1015.68 1015.60 1015.44 1015.28 1015.16 1015.04 1014.96 1014.80 1014.64 1014.44 1014.32 1014.20 1014.08 1013.92 1013.72 1013.60 1013.40 1013.16 1013.00 1012.84 1012.60 1012.36 1012.12 1011.92 1011.68 1011.44 1011.16 1010.92 1010.72 1010.48 1010.24 1010.00 1009.68 1009.44 1009.16 1008.96 1008.68 1008.36 1008.04 1007.76 1007.44 1007.16 1006.84 1006.56 1006.28 1005.96 1005.68 1005.44 1005.12 1004.80 1004.48 1004.16 1003.80 1003.48 1003.24 1003.00 1002.76 1002.60 1002.44 1002.24 1002.08 1001.88 1001.72 1001.52 1001.28
1016.16 1016.08 1016.00 1015.84 1015.72 1015.64 1015.52 1015.36 1015.20 1015.08 1015.00 1014.88 1014.72 1014.60 1014.44 1014.28 1014.12 1014.00 1013.84 1013.64 1013.40 1013.16 1012.96 1012.76 1012.60 1012.32 1012.08 1011.88 1011.64 1011.44 1011.20 1010.96 1010.72 1010.44 1010.24 1010.00 1009.72 1009.44 1009.16 1008.88 1008.60 1008.32 1008.00 1007.72 1007.44 1007.12 1006.80 1006.52 1006.20 1005.88 1005.60 1005.28 1005.00 1004.68 1004.32 1004.00 1003.72 1003.44 1003.16 1002.96 1002.72 1002.60 1002.44 1002.28 1002.12 1001.96 1001.84 1001.64 1001.44
1016.20 1016.16 1016.04 1015.92 1015.80 1015.64 1015.56 1015.44 1015.28 1015.16 1015.04 1014.88 1014.76 1014.64 1014.44 1014.32 1014.16 1013.96 1013.80 1013.64 1013.44 1013.20 1013.00 1012.76 1012.60 1012.36 1012.16 1011.88 1011.64 1011.40 1011.16 1010.96 1010.68 1010.44 1010.16 1010.00 1009.72 1009.44 1009.12 1008.84 1008.56 1008.24 1007.92 1007.60 1007.32 1007.04 1006.72 1006.44 1006.16 1005.80 1005.48 1005.20 1004.88 1004.56 1004.24 1003.96 1003.68 1003.40 1003.12 1002.88 1002.72 1002.52 1002.40 1002.32 1002.16 1002.08 1001.96 1001.76 1001.60
1016.24 1016.16 1016.08 1015.96 1015.88 1015.72 1015.60 1015.44 1015.32 1015.20 1015.08 1014.92 1014.76 1014.64 1014.48 1014.32 1014.16 1013.92 1013.72 1013.60 1013.40 1013.24 1013.04 1012.88 1012.64 1012.44 1012.20 1012.00 1011.72 1011.44 1011.16 1010.88 1010.64 1010.44 1010.16 1009.92 1009.64 1009.36 1009.08 1008.76 1008.48 1008.20 1007.88 1007.60 1007.28 1007.00 1006.68 1006.36 1006.08 1005.72 1005.44 1005.16 1004.84 1004.52 1004.20 1003.92 1003.64 1003.40 1003.16 1002.92 1002.72 1002.52 1002.36 1002.24 1002.16 1002.00 1001.92 1001.80 1001.60
1016.32 1016.20 1016.12 1016.00 1015.92 1015.76 1015.64 1015.52 1015.40 1015.24 1015.12 1014.96 1014.76 1014.60 1014.44 1014.32 1014.20 1014.00 1013.76 1013.56 1013.32 1013.16 1013.00 1012.80 1012.60 1012.40 1012.16 1011.96 1011.76 1011.48 1011.20 1010.88 1010.60 1010.40 1010.16 1009.88 1009.60 1009.28 1009.00 1008.72 1008.40 1008.12 1007.84 1007.52 1007.24 1006.92 1006.64 1006.32 1006.00 1005.68 1005.36 1005.12 1004.84 1004.52 1004.24 1003.96 1003.68 1003.44 1003.20 1002.96 1002.72 1002.56 1002.36 1002.20 1002.08 1001.96 1001.84 1001.72 1001.60
1016.36 1016.28 1016.16 1016.04 1015.96 1015.84 1015.72 1015.56 1015.40 1015.28 1015.12 1014.96 1014.76 1014.60 1014.44 1014.28 1014.16 1014.00 1013.80 1013.52 1013.28 1013.12 1012.92 1012.72 1012.52 1012.32 1012.12 1011.88 1011.64 1011.44 1011.20 1010.92 1010.60 1010.32 1010.08 1009.84 1009.60 1009.24 1008.92 1008.60 1008.32 1008.00 1007.72 1007.44 1007.16 1006.88 1006.60 1006.24 1005.92 1005.64 1005.32 1005.04 1004.80 1004.56 1004.28 1004.00 1003.72 1003.48 1003.28 1003.00 1002.80 1002.60 1002.40 1002.20 1002.00 1001.88 1001.72 1001.64 1001.48
1016.40 1016.32 1016.24 1016.12 1016.00 1015.88 1015.72 1015.56 1015.44 1015.28 1015.08 1014.96 1014.84 1014.64 1014.44 1014.28 1014.08 1013.92 1013.72 1013.48 1013.28 1013.04 1012.88 1012.68 1012.48 1012.28 1012.04 1011.80 1011.60 1011.32 1011.12 1010.88 1010.60 1010.32 1010.00 1009.76 1009.52 1009.20 1008.88 1008.52 1008.24 1007.96 1007.68 1007.40 1007.12 1006.76 1006.48 1006.16 1005.88 1005.60 1005.32 1005.04 1004.76 1004.56 1004.32 1004.00 1003.76 1003.52 1003.28 1003.04 1002.80 1002.60 1002.36 1002.16 1001.96 1001.76 1001.64 1001.52 1001.32
1016.44 1016.36 1016.28 1016.16 1016.00 1015.88 1015.72 1015.60 1015.44 1015.28 1015.12 1014.92 1014.80 1014.64 1014.44 1014.32 1014.08 1013.88 1013.64 1013.48 1013.28 1013.08 1012.84 1012.64 1012.44 1012.24 1012.00 1011.76 1011.52 1011.28 1011.00 1010.80 1010.60 1010.32 1010.00 1009.68 1009.44 1009.20 1008.88 1008.48 1008.16 1007.88 1007.60 1007.32 1007.00 1006.72 1006.40 1006.12 1005.80 1005.52 1005.28 1005.04 1004.76 1004.52 1004.28 1004.00 1003.76 1003.52 1003.28 1003.04 1002.76 1002.52 1002.32 1002.12 1001.88 1001.68 1001.52 1001.36 1001.16
1016.44 1016.32 1016.28 1016.16 1016.00 1015.88 1015.72 1015.60 1015.44 1015.32 1015.16 1014.92 1014.76 1014.60 1014.40 1014.24 1014.00 1013.80 1013.60 1013.48 1013.32 1013.16 1012.92 1012.64 1012.44 1012.16 1011.96 1011.72 1011.44 1011.16 1010.88 1010.68 1010.48 1010.24 1009.96 1009.64 1009.36 1009.12 1008.80 1008.48 1008.12 1007.80 1007.56 1007.28 1006.92 1006.60 1006.32 1006.00 1005.72 1005.44 1005.24 1005.00 1004.72 1004.52 1004.28 1004.00 1003.72 1003.48 1003.24 1003.00 1002.72 1002.48 1002.24 1002.00 1001.80 1001.60 1001.40 1001.20 1001.00
1016.44 1016.32 1016.24 1016.16 1016.00 1015.88 1015.72 1015.56 1015.44 1015.28 1015.16 1014.96 1014.72 1014.56 1014.36 1014.20 1014.00 1013.76 1013.56 1013.44 1013.28 1013.16 1012.88 1012.64 1012.36 1012.12 1011.88 1011.60 1011.36 1011.08 1010.76 1010.56 1010.36 1010.16 1009.88 1009.60 1009.28 1009.00 1008.72 1008.44 1008.08 1007.76 1007.48 1007.20 1006.88 1006.52 1006.24 1005.96 1005.68 1005.40 1005.16 1004.96 1004.72 1004.48 1004.28 1004.00 1003.72 1003.44 1003.20 1002.96 1002.72 1002.44 1002.12 1001.88 1001.68 1001.48 1001.28 1001.04 1000.84
1016.40 1016.32 1016.20 1016.08 1016.00 1015.88 1015.72 1015.52 1015.36 1015.20 1015.04 1014.92 1014.76 1014.56 1014.32 1014.12 1013.92 1013.72 1013.56 1013.36 1013.24 1013.04 1012.84 1012.56 1012.28 1012.00 1011.84 1011.60 1011.36 1011.08 1010.72 1010.44 1010.20 1010.00 1009.72 1009.48 1009.16 1008.92 1008.64 1008.36 1008.00 1007.72 1007.40 1007.08 1006.76 1006.44 1006.16 1005.88 1005.60 1005.36 1005.16 1004.92 1004.72 1004.44 1004.24 1004.00 1003.72 1003.40 1003.16 1002.92 1002.68 1002.36 1002.00 1001.72 1001.48 1001.32 1001.16 1000.92 1000.72
Wind_Speed
7 7 6 5 5 4 4 4 4 4 4 4 4 5 5 5 5 5 5 4 5 5 5 5 5 6 7 8 9 9 10 10 11 11 11 12 12 12 12 12 12 12 12 12 11 10 9 9 8 7 6 6 6 6 6 6 7 8 9 9 9 10 11 12 12 13 13 14 12
8 7 6 6 6 5 4 4 5 5 4 4 4 4 5 5 5 5 5 5 5 5 5 5 6 7 8 9 9 10 10 10 11 11 11 12 12 12 12 12 12 13 13 13 12 10 9 9 8 7 7 6 6 6 7 7 7 8 9 10 9 9 9 10 10 11 12 12 11
7 7 7 6 6 6 5 5 5 5 5 4 4 5 5 5 5 5 5 5 5 6 6 6 7 7 8 9 10 10 10 10 11 11 11 11 12 12 12 12 13 13 13 12 12 11 10 10 9 8 7 7 7 7 7 7 7 7 8 9 8 7 7 7 8 9 9 9 10
7 7 6 6 7 6 5 5 5 5 5 5 5 5 5 5 5 5 5 5 6 6 6 6 7 7 8 9 10 10 10 11 11 11 11 11 12 12 13 13 13 13 13 13 12 12 12 11 9 8 8 8 9 8 8 7 7 7 7 7 6 6 6 7 8 8 8 8 8
7 6 6 6 6 6 5 5 5 5 5 5 5 6 5 5 5 5 5 6 7 7 7 7 7 8 8 9 10 11 11 11 11 11 11 12 12 12 13 13 13 13 13 13 13 13 13 12 9 8 7 8 8 8 8 9 9 8 7 6 6 6 7 8 7 7 6 7 7
7 7 7 6 7 6 6 5 6 6 5 6 7 7 7 6 6 6 7 7 7 7 8 8 8 8 9 10 10 10 10 10 10 10 11 11 12 12 13 13 13 13 13 13 14 14 14 13 10 8 8 8 8 9 10 10 9 9 8 8 8 7 7 7 7 7 7 8 9
7 7 8 7 8 7 7 6 6 6 6 6 8 8 8 7 7 7 7 7 7 7 7 7 8 9 9 10 10 10 10 10 10 10 11 11 11 12 13 13 13 13 13 13 14 14 13 12 10 9 8 8 8 9 11 11 10 10 10 10 9 8 8 9 8 7 8 10 11
7 7 7 7 8 8 8 7 6 7 7 7 8 8 8 8 8 8 8 7 7 7 7 7 8 9 9 9 9 9 10 10 10 10 10 10 11 12 12 12 13 13 13 13 13 14 13 11 9 9 9 8 8 9 11 13 13 13 13 12 11 9 8 9 9 9 10 11 13
7 7 7 7 8 8 8 7 6 6 7 7 8 8 8 8 8 8 8 7 7 7 7 7 8 9 10 10 10 10 10 10 11 11 11 11 12 12 12 12 12 13 13 13 13 14 13 11 9 9 9 9 9 11 12 14 15 15 14 12 12 11 10 10 10 11 11 12 13
7 7 7 8 8 8 8 7 6 6 7 8 8 8 8 8 8 8 8 7 8 8 8 8 9 9 10 10 10 10 10 10 11 11 12 12 12 12 12 11 12 12 13 12 12 13 12 11 10 11 11 11 12 13 14 14 15 15 14 11 12 13 14 13 12 12 12 12 12
7 7 7 8 8 8 8 8 7 7 7 8 9 9 9 9 8 8 8 8 8 9 9 9 9 10 10 10 10 10 11 10 11 11 12 12 12 12 12 12 12 12 13 13 12 12 11 10 12 13 14 13 13 14 14 14 14 15 14 13 13 14 15 14 13 12 12 12 12
7 7 7 7 8 8 8 8 7 7 8 9 9 9 9 9 9 9 9 9 10 10 10 10 10 10 10 10 10 11 11 11 12 12 12 12 12 12 12 12 12 13 13 13 12 11 11 11 13 14 15 15 13 12 13 14 15 15 15 15 15 15 15 15 14 13 12 12 12
7 7 8 8 8 9 9 8 7 8 9 10 10 10 9 9 10 10 10 11 11 11 10 10 11 11 11 11 11 11 11 12 12 12 11 11 12 12 12 12 12 13 13 12 12 11 11 12 13 15 15 15 13 12 13 14 14 15 15 16 16 16 16 16 16 15 14 14 14
7 8 8 8 9 9 9 9 8 8 9 10 10 10 10 9 10 10 11 11 11 11 11 11 11 11 11 11 12 12 12 12 12 12 12 12 12 12 12 12 13 13 12 12 12 12 12 13 13 14 14 15 14 13 13 14 14 15 16 17 18 17 17 17 17 17 16 17 16
8 8 8 9 9 9 9 9 8 8 9 10 10 10 9 9 10 10 11 11 11 11 11 11 11 11 12 12 13 13 13 13 13 13 13 12 12 13 13 13 13 13 13 12 12 12 12 13 13 13 13 14 14 14 14 14 14 15 16 17 17 17 17 17 17 17 17 18 17
8 8 9 9 10 10 10 9 8 8 9 9 10 10 10 9 10 10 11 12 11 11 11 12 12 12 12 13 13 13 14 13 13 13 13 13 13 13 13 14 14 14 14 14 13 13 12 12 12 12 12 13 13 13 14 14 15 15 16 16 16 16 17 17 17 17 17 17 17
8 9 9 9 10 10 10 9 8 9 9 10 10 10 10 10 10 10 11 12 11 12 13 13 13 13 13 13 13 13 13 14 13 13 13 14 14 14 14 14 14 14 14 14 14 13 13 12 11 11 12 12 13 13 14 14 15 15 15 15 15 15 15 15 15 15 16 16 16
8 9 9 9 10 10 10 10 9 9 10 10 10 10 10 10 11 11 11 12 12 13 14 15 14 13 14 14 14 13 13 14 14 14 14 14 15 15 15 15 15 15 15 14 14 14 13 13 12 12 12 12 13 13 14 14 14 14 15 15 14 14 14 14 14 14 14 14 14
8 8 9 9 10 10 10 10 10 10 10 10 11 11 11 12 12 12 12 13 13 14 15 15 15 14 14 15 15 14 14 13 14 15 15 15 15 15 16 16 16 15 15 15 14 14 13 13 13 13 13 13 14 14 15 15 14 14 14 14 14 14 13 13 13 13 13 13 13
8 8 9 9 9 10 10 10 10 10 10 10 11 11 12 12 12 13 13 13 14 14 14 15 15 15 15 16 16 15 14 13 14 15 16 15 16 16 16 17 17 16 16 15 14 14 14 13 14 14 15 16 16 16 16 16 15 15 15 14 13 13 13 13 13 13 12 12 12
7 8 8 8 9 10 10 10 10 10 10 11 11 12 12 12 13 13 13 14 14 14 14 14 15 15 16 16 16 16 15 13 14 15 16 16 16 16 16 17 17 17 16 15 15 15 15 15 16 17 17 18 18 17 17 16 16 16 15 14 14 14 14 13 13 12 12 11 11
6 7 8 9 9 10 10 10 10 10 11 11 11 12 12 13 13 13 13 13 13 14 14 14 14 15 15 15 15 15 15 14 14 15 15 15 16 16 16 16 17 17 17 16 15 15 16 17 18 19 19 18 19 18 18 17 17 17 17 16 16 15 14 14 13 12 11 11 10
6 7 8 8 9 10 10 10 10 11 11 11 12 12 13 13 13 13 13 13 13 14 14 13 13 14 14 14 15 15 15 15 15 15 15 15 16 16 16 16 16 17 16 14 14 15 16 17 18 19 19 19 19 19 19 19 18 18 17 18 17 16 15 14 13 12 11 10 9
7 8 8 8 9 10 10 10 11 11 11 12 12 12 13 13 13 13 13 13 14 14 14 13 13 13 14 14 14 14 15 16 16 16 16 16 16 16 17 16 15 15 14 12 14 16 18 17 17 17 18 18 18 19 19 19 18 18 18 18 18 17 16 15 13 12 11 10 9
8 9 9 9 10 10 10 10 11 11 12 12 12 12 13 13 13 13 13 14 14 14 14 14 14 13 13 13 13 14 14 15 16 16 17 17 17 17 16 15 14 13 12 12 18 23 25 24 21 18 17 17 18 18 18 19 19 19 18 18 18 17 16 15 14 13 11 10 10
8 9 10 10 10 10 10 11 11 11 11 12 12 12 13 13 13 13 13 13 14 14 14 14 13 13 13 12 13 13 14 13 14 15 16 17 17 17 16 14 13 12 12 15 22 27 29 30 28 25 21 17 17 18 18 18 19 19 19 18 17 16 16 15 14 13 12 11 11
9 9 10 10 10 10 11 11 11 11 12 12 12 13 13 12 12 13 13 13 14 14 14 13 13 13 13 12 13 14 14 13 14 14 15 16 17 17 16 14 13 12 13 19 26 29 30 30 30 29 26 20 18 17 17 17 18 18 18 17 16 16 15 14 14 13 13 12 12
9 9 10 10 10 11 11 11 11 12 12 12 12 12 12 13 13 13 13 13 14 14 13 12 11 11 11 11 12 14 14 14 14 14 14 15 16 16 16 15 14 14 17 24 28 29 30 30 30 31 29 25 19 17 17 17 17 17 16 16 15 15 14 13 12 12 12 13 12
9 10 10 11 11 11 11 11 11 12 12 12 12 12 12 12 13 13 13 14 14 13 12 11 10 10 10 11 13 13 14 14 13 13 14 15 15 15 15 16 15 17 20 26 28 29 29 30 30 31 31 29 21 16 14 15 15 15 14 14 13 13 13 12 11 11 11 12 12
9 10 10 11 11 11 11 11 11 11 11 11 12 12 12 12 13 13 14 14 14 13 12 11 11 11 12 13 13 13 13 13 13 13 14 15 16 16 16 16 16 17 20 25 27 29 29 30 30 31 31 31 25 19 15 14 14 14 13 13 13 13 12 12 12 11 11 11 11
9 10 10 11 11 11 11 11 11 11 11 11 12 12 12 12 13 13 13 12 12 12 12 12 12 13 13 13 13 13 13 13 13 13 14 15 16 17 17 17 17 17 20 25 27 29 29 30 31 31 31 31 25 19 15 15 14 13 12 12 12 12 12 11 11 11 12 11 11
9 10 10 11 11 11 11 11 11 11 11 11 12 12 12 12 12 11 11 11 12 12 13 13 13 14 14 14 14 14 14 14 14 14 14 15 16 16 17 17 17 17 20 25 27 29 30 30 30 31 31 31 25 20 16 15 14 13 12 12 12 12 11 11 11 11 12 12 11
9 10 10 11 11 11 11 11 11 11 11 11 11 11 12 12 11 11 11 11 11 12 12 13 13 14 14 15 15 15 15 15 15 16 16 16 16 16 17 16 15 17 20 25 28 29 30 30 30 30 30 30 23 18 15 14 12 11 11 11 11 11 11 12 11 11 11 11 11
10 10 10 10 11 11 11 11 11 11 11 11 11 11 11 11 12 12 12 11 10 10 10 11 12 12 12 13 14 15 15 15 15 16 16 16 16 17 17 15 13 16 21 26 28 29 29 30 30 30 29 28 20 16 14 14 12 11 11 11 11 11 11 11 10 10 11 11 11
9 10 10 10 11 11 11 11 11 11 11 12 12 12 12 11 11 12 12 12 11 10 9 10 10 11 12 12 13 14 15 16 16 16 16 17 17 17 17 16 15 18 23 26 28 28 29 29 29 29 28 24 17 13 13 14 13 12 12 12 12 12 11 10 10 9 10 10 11
9 9 10 10 11 11 11 11 11 11 12 12 12 12 12 11 10 10 10 12 11 11 11 11 12 12 13 13 14 14 15 16 16 17 17 17 17 18 18 17 17 19 22 25 27 28 28 28 29 28 26 20 14 12 12 12 12 12 13 13 13 12 12 11 10 9 9 9 10
8 9 9 10 10 11 11 11 11 12 12 12 12 12 12 12 11 10 10 10 11 11 12 12 13 14 14 14 14 14 14 15 16 17 17 17 17 18 18 18 17 18 21 24 26 27 28 28 28 27 24 17 13 12 12 11 11 11 12 13 13 13 12 10 10 10 10 10 11
8 8 9 10 10 10 11 11 11 12 12 12 11 10 10 10 10 10 10 10 10 11 13 13 14 14 14 15 15 15 15 15 16 17 17 17 17 17 18 18 18 18 19 22 25 27 27 27 28 27 23 17 14 12 11 11 11 11 12 12 13 13 12 11 10 9 10 11 13
8 8 9 9 10 10 11 11 11 11 12 12 11 10 10 10 9 10 10 10 10 11 12 14 14 14 15 15 15 16 16 16 16 16 17 17 17 17 18 18 17 17 18 22 25 26 27 27 27 27 25 18 14 12 11 11 12 12 12 12 12 13 12 11 10 10 10 12 15
8 8 8 9 9 10 11 11 11 11 10 11 11 11 11 10 10 11 11 11 10 11 12 13 14 15 15 16 16 16 17 17 16 16 16 17 17 18 19 18 17 17 18 21 24 25 26 27 27 27 25 18 14 12 11 11 12 12 13 12 12 12 12 11 10 10 11 12 14
7 8 8 8 9 9 10 11 11 10 10 9 10 10 10 11 10 11 11 11 11 12 12 13 14 15 16 16 15 16 17 17 17 16 16 17 17 17 17 17 17 17 17 19 22 24 25 26 26 27 25 19 15 12 11 11 11 12 13 13 12 12 11 12 11 11 11 12 12
Wind_Direction
12 12 11 10 9 7 6 6 6 6 8 10 7 4 2 3 1 358 356 354 353 350 347 345 345 344 343 344 345 344 344 344 345 344 343 343 341 339 338 336 335 333 331 329 327 325 323 322 320 317 312 307 303 301 298 295 292 288 285 284 283 283 282 281 280 279 278 276 274
8 8 8 10 8 7 7 7 6 5 5 6 6 3 1 3 1 358 355 353 352 350 348 347 345 344 344 344 345 345 344 344 343 343 341 340 338 337 335 334 332 331 330 328 327 326 325 324 322 318 313 310 306 304 300 298 295 292 290 287 287 286 285 282 282 282 282 280 278
7 7 7 8 7 6 7 6 4 2 1 3 4 4 4 3 1 358 354 350 349 351 351 349 345 344 344 344 344 344 343 343 342 341 340 338 335 334 333 332 330 329 328 327 327 325 324 324 321 318 314 312 309 305 301 298 296 294 293 292 292 291 289 287 287 286 285 282 279
9 8 7 6 4 2 1 2 1 1 4 6 5 4 4 3 1 356 352 348 350 352 351 346 343 344 345 344 343 342 342 341 340 339 337 335 333 331 330 329 329 328 327 326 325 324 323 323 320 317 314 311 307 305 302 302 301 299 297 297 297 295 292 290 289 288 285 281 277
8 8 7 4 1 359 359 1 4 6 7 9 9 7 4 1 359 356 353 353 353 349 344 339 341 343 343 342 341 340 339 338 338 336 334 332 330 329 328 328 327 326 325 325 325 324 323 323 320 316 312 309 307 306 305 306 305 304 301 299 297 295 292 291 290 289 286 283 281
6 5 4 3 2 1 2 5 8 9 9 10 10 6 2 359 358 356 354 351 346 342 340 339 341 342 341 340 339 338 336 335 334 332 330 328 327 326 326 325 325 325 325 325 324 323 323 323 319 315 312 309 308 307 308 309 308 306 303 301 298 296 294 291 290 289 288 286 285
5 5 4 2 3 3 3 3 7 9 10 11 8 3 358 354 353 351 348 344 344 342 341 340 340 339 338 337 335 334 333 331 330 329 327 326 325 324 324 323 323 323 324 323 323 323 322 322 318 314 312 311 310 311 312 313 311 308 305 303 301 299 297 293 292 290 289 288 288
6 5 3 2 3 3 1 360 5 9 11 9 3 358 352 349 348 346 345 344 344 341 338 337 336 335 333 333 331 330 330 329 327 327 326 324 323 322 322 321 322 322 323 323 322 322 321 319 316 314 313 314 312 313 313 313 311 308 306 304 303 301 298 296 295 294 292 291 290
5 3 1 3 3 2 359 357 3 8 9 4 357 352 348 347 347 346 345 345 341 338 335 334 333 332 332 331 330 330 330 329 328 326 325 324 323 322 322 322 322 322 323 323 322 321 319 318 316 315 316 316 315 314 313 313 311 309 308 306 305 304 302 300 299 297 295 293 292
2 1 2 5 3 0 358 356 0 5 6 360 354 350 348 348 347 346 344 341 338 337 336 335 334 333 333 332 332 332 331 329 328 326 325 324 323 323 323 323 323 323 323 324 323 321 320 319 318 318 317 316 315 313 313 313 312 312 311 310 309 308 307 305 304 302 300 297 296
1 2 4 5 2 0 359 357 359 3 3 358 354 351 349 349 347 345 342 341 340 338 337 336 336 335 334 334 333 332 331 330 328 327 326 324 324 323 323 324 324 324 324 324 323 323 322 321 320 319 318 317 316 315 315 316 316 316 315 314 313 312 311 311 311 309 307 304 302
3 4 5 6 3 2 2 359 358 0 1 357 354 352 350 349 346 344 343 344 342 340 338 339 338 337 336 335 334 333 331 330 329 327 326 325 324 324 324 325 325 324 324 324 324 324 323 322 320 319 318 317 317 317 319 320 321 320 319 318 318 317 317 317 317 316 315 313 310
5 7 8 7 5 5 4 1 359 359 359 355 353 351 349 347 346 346 345 345 343 341 340 341 340 338 336 335 334 333 332 330 329 327 326 325 325 325 325 325 326 325 325 324 325 324 323 321 319 318 317 317 318 320 322 324 324 323 322 321 321 320 320 320 320 320 319 318 316
8 10 10 8 7 7 5 1 359 358 356 353 352 350 348 346 346 346 346 345 343 341 340 340 340 338 337 335 334 333 331 330 328 327 326 326 326 326 326 326 326 326 325 324 324 323 322 319 318 317 317 317 319 321 324 325 324 323 322 321 321 320 319 320 320 319 319 318 317
10 10 10 9 9 7 5 2 359 356 354 351 350 348 347 346 346 346 345 344 342 341 341 340 338 337 336 335 334 333 331 330 329 328 327 327 327 327 327 326 326 326 325 324 323 322 321 318 317 317 317 318 320 322 324 323 322 321 319 319 318 317 317 318 318 318 317 317 316
10 9 9 10 9 7 4 1 358 355 352 350 348 348 347 346 345 345 344 343 342 341 341 340 338 336 336 337 336 334 332 331 330 330 329 328 329 328 328 327 327 326 325 324 323 321 320 318 317 317 318 319 321 321 321 320 318 317 316 315 315 314 314 315 315 315 314 314 313
9 8 9 9 7 4 1 358 355 353 350 348 347 347 346 345 344 344 344 343 342 341 340 339 338 337 337 337 337 336 334 332 332 331 331 330 329 328 328 327 326 326 325 324 323 321 320 319 318 318 319 320 319 319 318 317 315 314 313 313 312 311 311 311 311 310 310 309 308
8 7 7 7 4 1 358 355 353 351 348 347 346 346 345 345 344 343 343 343 342 340 339 338 338 338 337 337 336 336 334 332 331 331 330 330 329 328 328 327 326 326 325 324 322 321 320 319 319 320 320 319 318 317 316 315 314 313 312 311 309 309 308 307 306 306 305 305 303
6 5 5 3 1 358 355 352 351 349 347 346 345 344 344 343 343 342 342 342 341 340 339 338 338 338 337 336 335 335 334 332 331 330 330 330 329 329 328 327 327 326 325 324 322 321 321 321 321 321 321 320 318 317 316 315 313 312 311 310 308 307 305 304 303 302 300 300 300
5 3 1 0 358 355 352 350 348 346 345 344 343 343 342 342 342 342 341 340 340 339 338 338 337 337 337 336 334 334 333 331 331 330 330 330 330 329 329 328 327 326 326 324 323 323 323 323 323 323 322 320 319 318 317 316 314 313 312 310 308 307 305 303 301 299 298 297 297
2 0 358 357 356 353 350 347 346 344 343 342 342 342 341 341 341 341 339 338 338 338 338 338 337 336 335 334 333 332 331 330 330 330 329 329 329 329 329 329 328 327 326 326 325 325 325 325 325 324 323 321 320 319 318 317 315 314 312 311 309 307 305 302 300 298 297 296 297
358 357 356 355 353 350 347 345 344 343 342 341 341 341 341 340 340 339 338 337 337 338 337 337 336 335 333 332 331 329 329 329 329 329 328 328 328 329 329 329 328 327 326 326 326 326 326 326 325 324 323 322 321 320 319 318 316 315 313 311 310 308 306 303 301 299 297 297 298
355 356 355 354 351 348 346 344 343 342 342 342 341 341 340 339 338 337 337 337 337 337 336 335 334 332 331 329 328 328 328 327 327 327 327 328 328 329 329 329 328 327 326 325 326 326 326 325 324 324 323 321 320 319 318 318 316 315 314 312 311 309 307 304 302 300 299 299 300
355 355 355 352 350 347 345 344 343 343 343 342 341 340 339 338 337 337 337 337 337 336 335 334 332 330 328 327 327 327 327 327 326 326 327 328 328 329 329 328 327 326 324 323 324 325 325 324 323 322 321 321 320 319 318 317 316 315 313 312 311 309 307 305 303 302 301 302 303
354 354 353 351 348 346 345 345 344 343 342 341 339 339 338 338 337 337 337 336 336 335 334 332 330 329 328 327 327 327 326 326 326 326 326 327 328 328 328 327 325 324 323 321 322 322 323 323 322 321 320 320 318 317 316 315 314 313 312 311 309 308 307 305 304 304 304 305 307
355 353 351 349 346 346 345 345 343 342 340 339 339 339 338 337 337 336 336 335 335 334 332 331 330 329 328 327 327 326 326 325 325 325 325 326 326 326 326 325 324 322 321 320 321 322 322 322 321 321 320 318 318 317 315 314 313 312 310 309 307 306 305 304 305 306 306 307 309
354 352 348 346 346 345 345 343 342 341 340 339 339 338 337 336 336 335 335 334 333 332 331 330 329 329 327 326 325 325 324 324 323 324 324 324 324 323 323 322 322 320 319 320 320 320 321 321 321 321 320 318 317 315 314 312 311 310 309 307 306 305 303 302 303 305 307 309 311
352 349 347 346 346 345 343 343 342 341 340 339 338 336 335 335 334 334 334 333 332 332 331 330 328 328 327 325 324 323 322 322 322 322 322 321 320 320 320 320 319 319 318 319 319 319 320 320 320 320 320 319 316 314 312 310 309 309 308 306 305 303 302 300 302 305 307 310 311
350 348 347 347 345 344 343 343 342 340 338 337 335 335 334 334 334 333 333 332 332 331 330 328 327 326 324 323 321 320 320 321 321 320 320 319 318 318 318 318 317 316 316 317 318 318 319 319 320 319 319 319 316 314 312 310 309 308 307 305 304 302 301 300 302 305 307 309 310
350 348 347 345 344 342 342 341 339 337 336 335 334 334 333 333 333 333 332 331 330 328 326 324 323 322 321 319 319 319 319 319 319 318 318 317 317 317 317 316 316 315 315 316 317 318 318 319 319 318 318 318 316 313 310 309 308 307 306 304 303 301 301 301 303 305 307 308 310
349 348 346 344 342 341 339 337 336 335 334 334 333 332 332 332 331 331 329 328 325 323 322 321 320 319 318 317 318 318 317 317 317 317 316 316 316 315 315 314 314 313 313 315 316 317 318 318 318 318 318 318 317 315 312 310 309 308 306 305 304 304 304 305 307 308 309 310 312
348 347 345 342 340 338 337 335 334 333 333 332 331 330 329 329 328 326 325 323 322 321 321 321 320 319 318 318 318 317 317 317 316 316 316 316 315 314 313 313 313 313 313 315 316 317 317 318 318 318 318 319 317 315 313 311 310 309 308 307 307 308 309 310 311 311 312 313 315
348 346 343 340 338 335 334 333 332 331 330 329 328 328 327 326 325 324 323 322 322 321 320 320 319 319 319 319 318 317 316 315 315 315 315 315 314 313 312 312 312 312 313 315 315 316 317 317 318 318 319 320 319 318 316 314 313 313 313 312 312 313 312 312 313 313 314 315 316
345 343 341 338 335 333 332 331 330 329 328 327 326 326 325 325 324 323 322 321 320 319 317 316 316 316 315 316 315 315 314 314 314 315 315 314 313 312 312 312 310 311 313 314 315 316 317 317 318 319 320 322 321 320 319 318 318 317 317 316 316 316 315 314 314 314 314 315 315
343 341 338 335 333 331 329 329 328 327 326 325 325 325 324 323 322 320 319 318 317 316 315 314 314 314 313 313 313 313 313 313 314 314 314 314 313 312 311 310 309 310 312 313 314 315 316 317 318 319 321 323 323 322 322 321 320 320 319 319 318 317 316 315 314 313 312 311 311
340 338 335 332 330 328 327 327 326 326 326 325 324 323 323 321 320 318 316 316 316 316 315 315 315 315 315 314 313 313 313 313 313 313 313 313 313 312 310 310 309 310 311 313 313 314 315 316 318 320 322 323 323 323 323 322 321 320 320 320 319 318 316 314 312 311 309 308 308
336 334 331 329 327 326 325 325 325 325 324 323 323 321 320 319 317 316 316 318 317 317 317 317 316 316 315 314 312 312 312 311 312 312 312 312 312 311 310 309 309 310 311 312 313 313 314 316 318 321 323 323 323 323 323 322 321 320 320 319 318 317 316 314 312 309 308 307 307
332 330 328 326 324 323 323 324 324 323 322 321 319 318 317 317 316 316 317 319 319 318 317 316 315 314 313 312 311 311 311 311 311 311 311 310 310 309 309 308 309 309 310 311 312 312 314 316 318 321 323 323 324 324 323 322 321 320 320 319 318 317 316 314 313 311 309 309 310
327 326 325 323 322 321 321 322 321 320 319 318 316 316 316 316 316 317 318 319 318 316 315 314 313 312 312 312 312 311 311 311 310 310 309 308 308 308 308 308 308 308 309 309 310 311 313 316 318 322 324 323 324 324 323 321 320 319 319 318 317 316 315 314 313 312 312 311 312
323 322 321 320 319 319 319 319 318 317 315 315 315 315 315 316 315 316 317 317 316 315 313 311 311 311 311 313 312 311 311 310 309 308 308 307 307 307 308 307 307 307 307 307 309 310 312 315 318 322 324 323 324 323 321 320 319 318 317 316 315 314 313 312 312 312 312 312 313
320 319 318 317 317 317 317 316 314 313 312 312 313 313 314 315 315 316 317 316 315 314 312 311 311 311 311 312 311 310 309 309 308 308 307 306 306 307 307 306 305 305 304 305 307 309 312 315 318 321 323 323 322 321 320 318 316 315 314 313 312 311 310 310 311 311 312 312 312